Regional Weather Roundup
Issued by NWS Little Rock, AR

Home | Current Version | Previous Version | Graphics & Text | Print | Product List | Glossary On
Versions: 1 2 3 4 5 6 7 8 9 10 11 12 13 14 15 16 17 18 19 20 21 22 23 24 25 26 27 28 29 30 31 32
000
ASUS44 KLZK 250612
RWRLZK

WEATHER ROUNDUP FOR ARKANSAS
NATIONAL WEATHER SERVICE LITTLE ROCK AR
100 AM CDT TUE JUL 25 2017

NOTE: "FAIR" INDICATES FEW OR NO CLOUDS BELOW 12,000 FEET WITH NO
SIGNIFICANT WEATHER AND/OR OBSTRUCTIONS TO VISIBILITY.

ARZ001-003-010-029-250700-
NORTHWEST ARKANSAS

CITY           SKY/WX    TMP DP  RH WIND       PRES   REMARKS
FAYETTEVILLE   CLEAR     73  73 100 SE3       30.06R
6HR MIN TEMP:  72; 6HR MAX TEMP:  83; 6HR PCP: TRACE;

FORT SMITH     CLEAR     82  75  79 CALM      30.01R HX  89
6HR MIN TEMP:  81; 6HR MAX TEMP:  93;

HARRISON       PTCLDY    79  71  76 CALM      30.05R
6HR MIN TEMP:  76; 6HR MAX TEMP:  91;

BENTONVILLE    CLEAR     79  70  73 CALM      30.06R
6HR MIN TEMP:  79; 6HR MAX TEMP:  93;

ROGERS         CLEAR     75  71  87 NE6       30.07R
6HR MIN TEMP:  75; 6HR MAX TEMP:  91;

SILOAM SPGS    CLEAR     73  68  83 CALM      30.06R
6HR MIN TEMP:  73; 6HR MAX TEMP:  91;

HIGHFILL       PTCLDY    76  72  87 CALM      30.06R
6HR MIN TEMP:  76; 6HR MAX TEMP:  92;

$$

ARZ004-005-016-250700-
NORTH CENTRAL ARKANSAS

CITY           SKY/WX    TMP DP  RH WIND       PRES   REMARKS
BATESVILLE     CLEAR     82  73  74 S3        30.00S HX  88
6HR MIN TEMP:  82; 6HR MAX TEMP:  91;

FLIPPIN        CLEAR     81  68  65 SW6       29.99R
6HR MIN TEMP:  81; 6HR MAX TEMP:  93;

MTN HOME       CLEAR     79  72  79 SW3       30.01R
6HR MIN TEMP:  78; 6HR MAX TEMP:  91;

$$

ARZ040-041-250700-
WEST CENTRAL ARKANSAS

CITY           SKY/WX    TMP DP  RH WIND       PRES   REMARKS
MENA           CLEAR     75  73  94 CALM      30.06S
MOUNT IDA      CLEAR     76  73  91 CALM      30.01F
6HR MIN TEMP:  76; 6HR MAX TEMP:  90;

$$

ARZ009-017-025-026-028-250700-
NORTHEAST ARKANSAS

CITY           SKY/WX    TMP DP  RH WIND       PRES   REMARKS
JONESBORO      CLEAR     81  78  91 W5        29.99S HX  89
6HR MIN TEMP:  79; 6HR MAX TEMP:  89;

WALNUT RIDGE   CLEAR     81  75  83 S7        30.00R HX  86
6HR MIN TEMP:  81; 6HR MAX TEMP:  91;

BLYTHEVILLE    CLEAR     77  75  93 CALM      29.99S
6HR MIN TEMP:  77; 6HR MAX TEMP:  88;

$$

ARZ022-023-033-042-044-250700-
CENTRAL ARKANSAS

CITY           SKY/WX    TMP DP  RH WIND       PRES   REMARKS
LITTLE ROCK    CLEAR     79  78  97 S3        29.99S
6HR MIN TEMP:  79; 6HR MAX TEMP:  89;

N LITTLE ROCK    N/A     80  76  86 CALM      29.98S HX  86
6HR MIN TEMP:  81; 6HR MAX TEMP:  90;

JACKSONVILLE   CLEAR     81  79  95 CALM      29.99S HX  90
6HR MIN TEMP:  80; 6HR MAX TEMP:  91;

CONWAY           N/A     81  77  89 CALM      29.97F HX  88
SEARCY         PTCLDY    78  78 100 CALM      30.01R
6HR MIN TEMP:  78; 6HR MAX TEMP:  90;

HOT SPRINGS    CLEAR     80  76  87 NW3       30.01F HX  86
6HR MIN TEMP:  80; 6HR MAX TEMP:  91;

RUSSELLVILLE   CLEAR     77  75  93 CALM      30.00R
6HR MIN TEMP:  77; 6HR MAX TEMP:  91;

CLINTON        FAIR      77  75  94 CALM      30.01S
$$

ARZ036-250700-
EAST ARKANSAS

CITY           SKY/WX    TMP DP  RH WIND       PRES   REMARKS
WEST MEMPHIS   CLEAR     76  75  97 S3        30.00R
6HR MIN TEMP:  75; 6HR MAX TEMP:  88; 6HR PCP: TRACE;

$$

ARZ050-053-066-070-073-250700-
SOUTHWEST ARKANSAS

CITY           SKY/WX    TMP DP  RH WIND       PRES   REMARKS
ARKADELPHIA    FAIR      75  75 100 CALM      30.01S
6HR MIN TEMP:  75; 6HR MAX TEMP:  89;

CAMDEN         CLEAR     77  73  88 CALM      30.01R
TEXARKANA      CLEAR     79  75  87 S7        30.02R
6HR MIN TEMP:  78; 6HR MAX TEMP:  88;

EL DORADO      CLEAR     77  75  93 SW6       30.02S
6HR MIN TEMP:  76; 6HR MAX TEMP:  86;

DE QUEEN       CLEAR     76  76 100 CALM      30.01R FOG
6HR MIN TEMP:  75; 6HR MAX TEMP:  89;

$$

ARZ056-057-069-250700-
SOUTHEAST ARKANSAS

CITY           SKY/WX    TMP DP  RH WIND       PRES   REMARKS
PINE BLUFF     CLEAR     78  75  90 S3        30.01R
6HR MIN TEMP:  78; 6HR MAX TEMP:  89;

STUTTGART      CLEAR     79  63  57 SW6       30.00S
6HR MIN TEMP:  79; 6HR MAX TEMP:  90;

MONTICELLO     MOCLDY    78  74  87 CALM      30.02R
6HR MIN TEMP:  78; 6HR MAX TEMP:  86;


$$






USA.gov is the U.S. government's official web portal to all federal, state and local government web resources and services.